Rechercher aéroport 
image banner adimage banner adimage banner ad
image banner ad

3CL0 - Uc Davis Medical Center Tower Ii

Situé à Sacramento, United States

ICAO - 3CL0, IATA -

Données fournies par Airmate  

Information générale

Coordonnées: N38°33'18" W121°27'20"
Élévation : 236 feet MSL.
Variation magnétique : 15° East
Voir autres Aéroports à California

Données opérationnelles

Special qualification required
Heure actuelle UTC:
Heure actuelle locale:
Météo à : KSAC - Sacramento Executive ( 6 km )
METAR: KSAC 231453Z 00000KT 10SM CLR 17/11 A2994 RMK AO2 SLP137 T01670111 53007
TAF: KSAC 231120Z 2312/2412 33007KT P6SM SKC FM240300 VRB04KT P6SM FEW250
Voir NOTAMs / SUP AIP / TFR affectant cet aéroport [VIEW]
Fréquences de communication: [VIEW]

Pistes:

Coordonnées de l'aéroport

Adresse: Sacramento United States

Vue satellite de 3CL0